Regional Weather Roundup
Issued by NWS

Home | Current Version | Previous Version | Graphics & Text | Print | Product List | Glossary On
Versions: 1 2 3 4 5 6 7 8 9 10 11 12 13 14 15 16 17 18 19 20 21 22 23 24 25 26 27 28 29 30 31 32 33 34 35 36 37 38 39 40 41 42 43 44 45 46 47 48 49 50
000
ASUS43 KMPX 221801
RWRMN
WEATHER ROUNDUP FOR MINNESOTA
NATIONAL WEATHER SERVICE TWIN CITIES/CHANHASSEN MN
100 PM CDT FRI AUG 22 2014


NOTE: "FAIR" INDICATES FEW OR NO CLOUDS BELOW 12,000 FEET WITH NO
SIGNIFICANT WEATHER AND/OR OBSTRUCTIONS TO VISIBILITY. N/A MEANS
CURRENT SKY AND/OR WEATHER CONDITIONS ARE NOT AVAILABLE.

MNZ060>063-068>070-221900-
   Twin Cities Metro

CITY           SKY/WX    TMP DP  RH WIND       PRES   REMARKS
TWIN CITIES    CLOUDY    75  68  78 CALM      29.98R
6HR MIN TEMP:  71; 6HR MAX TEMP:  75;

ST PAUL        CLOUDY    74  68  81 CALM      29.98R
CRYSTAL        CLOUDY    75  67  76 CALM      29.97R
BLAINE         CLOUDY    73  70  88 NW5       29.98
LAKEVILLE      PTSUNNY   75  68  78 NW3       29.98R
EDEN PRAIRIE   CLOUDY    75  68  78 CALM      29.98R
6HR MIN TEMP:  72; 6HR MAX TEMP:  76;

SOUTH ST PAUL  CLOUDY    74  68  79 NW3       29.97S
LAKE ELMO      CLOUDY    73  70  88 N3        29.99S
$$
MNZ001>005-007-008-013>017-022>024-027-028-221900-
   Northwest Minnesota

CITY           SKY/WX    TMP DP  RH WIND       PRES   REMARKS
BEMIDJI        MOSUNNY   75  64  70 SE5       29.99F
HALLOCK        CLOUDY    70  64  83 NW12      30.01S
ROSEAU         RAIN      70  64  83 NE6       30.01R
WARROAD        CLOUDY    70  64  83 NE5       30.01S
THIEF RVR FALL CLOUDY    70  66  88 NW10      29.99R
CROOKSTON      CLOUDY    68  66  94 NW12      30.00R FOG
FOSSTON        RAIN      70  66  88 CALM      30.00R
DETROIT LAKES  MOSUNNY   77  68  73 NW5       30.00S
MOORHEAD       CLOUDY    72  72 100 N8        30.00R
PARK RAPIDS    MOSUNNY   76  65  68 E7        29.98F
MAHNOMEN       CLOUDY    75  69  81 NW5       29.98S
$$
MNZ006-009>011-018-025>026-221900-
   North Central Minnesota

CITY           SKY/WX    TMP DP  RH WIND       PRES   REMARKS
BAUDETTE       CLOUDY    73  66  78 VRB5      30.00S
FLAG ISLAND    CLOUDY    70  64  83 N3        30.00S
INTL FALLS     CLOUDY    71  64  78 NE6       30.00F
6HR MIN TEMP:  64; 6HR MAX TEMP:  71;

WASKISH        PTSUNNY   73  66  78 CALM      29.99S
BIG FORK       MOSUNNY   72  64  78 CALM      30.01S
LONGVILLE      CLOUDY    73  66  78 SE3       30.00R
GRAND RAPIDS   CLOUDY    72  64  78 E5        30.01S
CRANE LAKE     CLOUDY    68  64  88 N3        30.02R
ORR            CLOUDY    73  63  68 CALM      29.99R
COOK           PTSUNNY   70  64  83 CALM      30.02R
WALKER         FAIR      75  65  71 SE6       30.00S
$$
MNZ012-019>021-037-221900-
   Northeast Minnesota

CITY           SKY/WX    TMP DP  RH WIND       PRES   REMARKS
DULUTH         CLOUDY    67  63  87 SE6       30.00S FOG
6HR MIN TEMP:  62; 6HR MAX TEMP:  67;

ELY            CLOUDY    68  64  88 CALM      30.02R
HIBBING        CLOUDY    72  65  78 SE3       30.00S
EVELETH        CLOUDY    68  64  88 CALM      30.02R
DULUTH HARBOR  CLOUDY    63  61  94 NE10      30.01S
TWO HARBORS    CLOUDY    68  63  83 NE6       29.99R
SILVER BAY     CLOUDY    64  64 100 N6        29.99S
GRAND MARAIS     N/A     62  59  90 E8        30.00R
G MARAIS ARPRT CLOUDY    63  59  88 E7        30.04S FOG
$$
MNZ029>031-032-039>041-046>048-054>057-064-221900-
   West Central Minnesota

CITY           SKY/WX    TMP DP  RH WIND       PRES   REMARKS
FERGUS FALLS   MOSUNNY   79  64  61 CALM      29.97S
WHEATON        MOSUNNY   75  68  78 CALM      29.99F
MORRIS         SUNNY     81  66  61 N5        29.97F
ALEXANDRIA     MOSUNNY   79  66  64 NW5       30.01S
ELBOW LAKE     PTSUNNY   78  68  72 CALM      29.99S
WADENA         SUNNY     75  66  73 E5        29.99S
GLENWOOD       SUNNY     79  68  69 N5        30.00F
APPLETON       MOSUNNY   82  66  57 NE5       29.97F
BENSON         PTSUNNY   81  70  69 SE3       29.97F
ORTONVILLE     PTSUNNY   79  70  73 CALM      29.99S
MADISON        SUNNY     79  70  73 CALM      29.98F
WILLMAR        FAIR      81  66  61 NE5       29.99F
$$
MNZ033>034-036-042>043-049>051-058-059-221900-
   Central Minnesota

CITY           SKY/WX    TMP DP  RH WIND       PRES   REMARKS
ST CLOUD       CLOUDY    76  68  76 NW7       29.99R
6HR MIN TEMP:  69; 6HR MAX TEMP:  76;

SAUK CENTRE    MOCLDY    76  67  73 NE6       29.99F
PAYNESVILLE    PTSUNNY   76  66  73 NW5       29.99S HAZE
AITKIN         CLOUDY    73  66  78 CALM      29.99S
PINE RIVER     CLOUDY    73  66  78 SE8       30.03S
BRAINERD       CLOUDY    69  65  86 SW3       30.01R
STAPLES        CLOUDY    72  66  83 E3        30.00S
LONG PRAIRIE   CLOUDY    72  64  78 CALM      30.01F
LITTLE FALLS   CLOUDY    70  64  83 CALM      30.00F
LITCHFIELD     CLOUDY    79  72  78 NE6       29.99S
BUFFALO        CLOUDY    74  67  77 NE3       29.99S
MAPLE LAKE     CLOUDY    76  69  80 CALM      30.00R
$$
MNZ037-044-045-052-053-221900-
   East Central Minnesota

CITY           SKY/WX    TMP DP  RH WIND       PRES   REMARKS
PRINCETON      CLOUDY    73  68  83 NW6       29.99R
MORA           CLOUDY    70  64  83 CALM      30.01S
CAMBRIDGE      PTSUNNY   75  64  69 N3        29.97R
RUSH CITY      CLOUDY    69  65  85 N6        29.99R
MOOSE LAKE     CLOUDY    64  61  88 NE3       29.99R
HINCKLEY       CLOUDY    68  64  88 N3        29.99R
CLOQUET        CLOUDY    64  63  94 E5        30.01S
MCGREGOR       CLOUDY    68  64  88 CALM      30.01S
$$
MNZ071>073-080-081-089-090-097-098-221900-
   Southwest Minnesota

CITY           SKY/WX    TMP DP  RH WIND       PRES   REMARKS
MONTEVIDEO     MOSUNNY   81  72  74 NE6       29.98F
GRANITE FALLS  PTSUNNY   80  71  72 NW7       30.00S
CANBY          CLOUDY    77  70  78 NE3       30.00F
MARSHALL       PTSUNNY   81  70  69 N6        29.99S
REDWOOD FALLS  MOSUNNY   82  69  64 N5        29.98S
OLIVIA         CLOUDY    79  70  73 N5        29.98S
PIPESTONE      MOSUNNY   79  70  73 NE3       30.01S
WINDOM         PTSUNNY   79  70  73 NE7       30.00R
WORTHINGTON      N/A    N/A N/A N/A MISG        N/A
JACKSON        MOSUNNY   81  68  65 E6        30.00S
TRACY          MOSUNNY   80  71  72 N5        30.00S
SLAYTON        PTSUNNY   80  70  72 CALM      30.02R
$$
MNZ065>067-074>077-082>085-091>093-221900-
   South Central Minnesota

CITY           SKY/WX    TMP DP  RH WIND       PRES   REMARKS
MANKATO        MOSUNNY   79  66  65 N6        29.98S
NEW ULM        MOSUNNY   79  72  78 N3        29.98S
ST JAMES       PTSUNNY   82  70  65 NE7       29.99S
FAIRMONT       PTSUNNY   72  70  94 MISG      29.99S
GLENCOE        CLOUDY    77  67  71 NE3       29.99R
FARIBAULT      PTSUNNY   84  66  54 NW3       29.98S
OWATONNA       MOSUNNY   77  68  73 CALM      29.99R
WASECA         PTSUNNY   77  63  61 CALM      30.00S
ALBERT LEA     PTSUNNY   81  70  69 N3        29.98S
$$
MNZ078>079-086>088-094>096-221900-
   Southeast Minnesota

CITY           SKY/WX    TMP DP  RH WIND       PRES   REMARKS
ROCHESTER      MOSUNNY   82  70  66 CALM      29.99S
6HR MIN TEMP:  72; 6HR MAX TEMP:  82;

RED WING       MOSUNNY   82  70  65 SW3       29.94S
STANTON        PTSUNNY   79  69  71 CALM      29.96R
DODGE CENTER   PTSUNNY   79  70  73 NW5       29.99S
WINONA         CLOUDY    81  70  69 CALM      29.95R
AUSTIN         MOSUNNY   81  72  74 CALM      29.98S
PRESTON        MOSUNNY   80  74  81 CALM      29.99S
$$
ABBREVIATIONS USED IN REMARKS
   TC - TEMPERATURES IN CELSIUS
  WCI - WIND CHILL INDEX
   HX - HEAT INDEX
  VSB - VISIBILITY
$$



USA.gov is the U.S. government's official web portal to all federal, state and local government web resources and services.